Location: Limerick
(52.6650°N, 8.6230°W)
Time: 19:49:19
(UTC+00:00)

ISS - Visible Passes

Search period start: 18 January 2018 00:00
Search period end: 28 January 2018 00:00
Orbit: 402 x 407 km, 51.6° (Epoch: 18 January)

Date Brightness Start Highest point End Pass type
(mag) Time Alt. Az. Time Alt. Az. Time Alt. Az.
26 Jan -1.3 19:28:13 10° SSW 19:28:58 14° S 19:28:58 14° S visible
27 Jan -1.6 18:37:01 10° SSE 18:38:27 12° SE 18:38:58 12° SE visible
27 Jan -0.8 20:11:11 10° SW 20:11:38 13° SW 20:11:38 13° SW visible
